This demonstration page uses our WeatherBlox Daily Observations layout. Learn more.

Left ArrowRight Arrow

44.89941, -97.11507

Hourly Observations for June 6, 2021

Temp ( °F °C ) Dew Point ( °F °C ) Humidity (%) Winds ( mph kmh ) Pressure ( in mb ) Visibility ( mi km ) Precip ( " mm )
12:53 am 00:53 Clear 80 26.7 59 15 49 49 S 18 30 29.57 1001 10 16 0.00 0.00
1:53 am 01:53 Clear 78 25.6 57 13.9 48 48 S 18 30 29.56 1001 10 16 0.00 0.00
2:53 am 02:53 Clear 77 25 58 14.4 52 52 SSW 24 39 29.55 1001 10 16 0.00 0.00
3:53 am 03:53 Clear 75 23.9 58 14.4 55 55 S 20 31 29.54 1001 10 16 0.00 0.00
4:53 am 04:53 Clear 73 22.8 58 14.4 59 59 S 20 31 29.53 1000 10 16 0.00 0.00
5:53 am 05:53 Sunny 73 22.8 57 13.9 57 57 S 20 31 29.52 1000 10 16 0.00 0.00
6:53 am 06:53 Sunny 73 22.8 57 13.9 57 57 S 20 31 29.52 1000 10 16 0.00 0.00
7:53 am 07:53 Sunny 74 23.3 58 14.4 57 57 S 23 37 29.51 999 10 16 0.00 0.00
8:53 am 08:53 Sunny 77 25 60 15.6 56 56 S 23 37 29.50 999 10 16 0.00 0.00
9:53 am 09:53 Sunny 80 26.7 60 15.6 51 51 S 25 41 29.48 998 10 16 0.00 0.00
10:53 am 10:53 Sunny 84 28.9 61 16.1 46 46 SSW 29 46 29.49 999 10 16 0.00 0.00
11:53 am 11:53 Sunny 87 30.6 61 16.1 42 42 SSW 24 39 29.50 999 10 16 0.00 0.00
12:53 pm 12:53 Sunny 89 31.7 62 16.7 41 41 SSW 26 43 29.50 999 10 16 0.00 0.00
1:53 pm 13:53 Sunny 91 32.8 61 16.1 37 37 SW 24 39 29.51 999 10 16 0.00 0.00
2:53 pm 14:53 Sunny 92 33.3 61 16.1 36 36 SW 23 37 29.52 1000 10 16 0.00 0.00
3:53 pm 15:53 Sunny 92 33.3 61 16.1 36 36 WSW 15 24 29.52 1000 10 16 0.00 0.00
4:53 pm 16:53 Sunny 92 33.3 61 16.1 36 36 SW 8 13 29.53 1000 10 16 0.00 0.00
5:32 pm 17:32 Mostly Sunny 89 31.7 64 17.8 43 43 N 17 28 29.48 998 10 16 0.00 0.00
5:53 pm 17:53 Sunny 88 31.1 62 16.7 42 42 NNW 21 33 29.56 1001 10 16 0.00 0.00
6:53 pm 18:53 Sunny 86 30 61 16.1 43 43 NNW 18 30 29.58 1002 10 16 0.00 0.00
7:53 pm 19:53 Sunny 83 28.3 60 15.6 46 46 NNW 16 26 29.60 1002 10 16 0.00 0.00
8:53 pm 20:53 Sunny 79 26.1 58 14.4 49 49 N 15 24 29.64 1004 10 16 0.00 0.00
9:53 pm 21:53 Partly Cloudy 75 23.9 57 13.9 54 54 N 9 15 29.66 1005 10 16 0.00 0.00
10:53 pm 22:53 Mostly Clear 70 21.1 55 12.8 59 59 N 9 15 29.70 1006 10 16 0.00 0.00
11:53 pm 23:53 Partly Cloudy 69 20.6 54 12.2 59 59 NNE 5 7 29.71 1006 10 16 0.00 0.00

Powered by AerisWeather